User: anonymous   Login
Location: Unspecified
(0.0000°N, 0.0000°E)
Time: 06:58:11
(UTC+00:00)
Language:

LAPAN A2 - Orbit

View from above orbital plane
View from above orbital plane
View from above satellite
View from above satellite

Ground track
Ground track

The orbit data is extracted from the following two-line orbital elements,

1 40931U 15052B   17202.76089052 +.00000666 +00000-0 +36470-5 0  9992
2 40931 006.0011 346.1931 0013951 009.8024 350.2489 14.76534032098087
Epoch (UTC): 21 July 2017 18:15:40
Eccentricity: 0.0013951
inclination: 6.0011°
perigee height: 630 km
apogee height: 650 km
right ascension of ascending node: 346.1931°
argument of perigee: 9.8024°
revolutions per day: 14.76534032
mean anomaly at epoch: 350.2489°
orbit number at epoch: 9808

The dashed part of the orbit path shows where the satellite is in the earth's shadow,  

DLR